HAWK-7A

Last updated on Fri Dec 29 2023 00:03:29 GMT+0000 (Coordinated Universal Time)

1 56191U 23054P 23362.15604403 .00005856 00000+0 30636-3 0 9999 2 56191 97.3907 253.2669 0010027 28.1010 332.0763 15.16175777 39636
UTC large
Height (km)
Speed (km/s)
/
Latitude / Longitude
Inclination (degrees)
Orbital Period (minutes)
Azimuth
Elevation
Range (km)
Doppler Factor

Next 0 passes for location: London (51.5072 / 0.1276)

Sorry there are no passes over London.